Home > Weather > Kerpen > Past weeks

Flag for Germany Weather for the Past 2 Weeks in Kerpen, North Rhine-Westphalia, Germany

Now
39 °F

Light rain. Passing clouds.


Feels Like: 31 °F
Forecast: 38 / 44 °F
Wind: 15 mph from Southwest

Location: Noervenich

Current Time: Feb 9, 2016 at 9:58:31 PM

Latest Report: Feb 9, 2016 at 9:20 PM


Visibility: N/A

Pressure: 29.18 "Hg

Humidity: 87%

Dew point: 36 °F

Location of KerpenLocation

Historic Weather in Kerpen — Graph

°F

Kerpen Temperature Yesterday

Maximum temperature yesterday: 50 °F (at 7:20 AM)
Minimum temperature yesterday: 46 °F (at 12:20 AM)
Average temperature yesterday: 48 °F

High & Low Weather Summary for the Past Weeks

 TemperatureHumidityPressure
High55 °F (Jan 26, 1:20 AM)100% (Feb 2, 9:20 AM)30.33 "Hg (Feb 2, 9:20 AM)
Low34 °F (Jan 29, 1:20 AM)50% (Feb 7, 4:20 PM)28.85 "Hg (Feb 9, 3:20 PM)
Average47 °F77%29.94 "Hg
* Reported Jan 25 8:20 PM — Feb 9 8:20 PM, Kerpen, Weather by CustomWeather, © 2016

Note: Actual official high and low records may vary slightly from our data, if they occured in-between our weather recording intervals... More about our weather records

Advertising

Kerpen Weather History for the Previous 24 Hours

 ConditionsComfort  
Time TempWeatherWind HumidityBarometerVisibility
8:20 PM
Tue, Feb 9
39 °FLight rain. Passing clouds.18 mph87%29.12 "HgN/A
7:20 PM37 °FLight rain. Passing clouds.20 mph87%29.06 "HgN/A
6:20 PM37 °FLight rain. Partly cloudy.24 mph87%29.00 "HgN/A
5:20 PM46 °FRain showers. Broken clouds.13 mph76%28.88 "Hg3 mi
4:20 PM48 °FBroken clouds.10 mph71%28.88 "HgN/A
3:20 PM54 °FSprinkles. Broken clouds.17 mph67%28.85 "Hg5 mi
2:20 PM48 °FBroken clouds.6 mph82%28.91 "HgN/A
1:20 PM45 °FLight rain. Partly sunny.8 mph87%29.00 "HgN/A
12:20 PM43 °FPartly sunny.7 mph87%29.09 "HgN/A
11:20 AM43 °FRain. Overcast.7 mph87%29.21 "Hg6 mi
10:20 AM45 °FLight rain. Partly sunny.8 mph71%29.27 "HgN/A
9:20 AM45 °FPartly sunny.6 mph71%29.36 "HgN/A
8:20 AM45 °FPartly sunny.6 mph66%29.39 "HgN/A
7:20 AM45 °FPassing clouds.7 mph66%29.45 "HgN/A
6:20 AM43 °FPassing clouds.10 mph76%29.45 "HgN/A
5:20 AM45 °FPassing clouds.8 mph66%29.47 "HgN/A
4:20 AM46 °FPassing clouds.10 mph57%29.47 "HgN/A
3:20 AM46 °FPassing clouds.16 mph57%29.50 "HgN/A
2:20 AM46 °FPassing clouds.20 mph57%29.50 "HgN/A
1:20 AM45 °FSprinkles. Passing clouds.18 mph66%29.50 "HgN/A
12:20 AM46 °FPassing clouds.22 mph57%29.45 "HgN/A
11:20 PM
Mon, Feb 8
46 °FPassing clouds.26 mph53%29.45 "HgN/A
10:20 PM48 °FPassing clouds.26 mph54%29.42 "HgN/A
9:20 PM48 °FSprinkles. Passing clouds.28 mph54%29.39 "HgN/A
Weather by CustomWeather, © 2016

See weather overviewHow to use our weather pages